ヴォルフ彗星

14P/Wolf (2026)

English version
Home page
Updated on May 15, 2024

---------------------------------------------------------------------

・ プロフィール

・ 軌道要素

Epoch 2024 Mar. 31.0 TT = JDT 2460400.5
T 2026 Sept. 18.67106 TT                                Rudenko
q   2.7375553            (2000.0)            P               Q
n   0.11220187     Peri.  159.16420     +0.98423866     +0.01984366
a   4.2573170      Node   202.03861     -0.01177856     +0.99883390
e   0.3569764      Incl.   27.92531     +0.17645259     -0.04401226
P   8.78
>From 379 observations 1992 July 27-2024 May 8, mean residual 0".5.

・ 光度変化

        m1 = 15.0 + 5 logΔ + 6.0 log r

---------------------------------------------------------------------

軌道要素はM.P.E.C. 2024-J304に掲載されたものです。
光度グラフはComet for Windowsで作成したものです。

---------------------------------------------------------------------

Copyright(C) Seiichi Yoshida (comet@aerith.net). All rights reserved.